Location: Unspecified
(0.0000°N, 0.0000°E)
Time: 06:31:25
(UTC+00:00)

Vanguard 1 Rocket - Pass Details

Date: 24 November 2019
Orbit: 650 x 4226 km, 34.3° (Epoch: 10 December)

Event Time Altitude Azimuth Distance (km) Brightness Sun altitude
Rises 10:23:05 0° 296° (WNW) 4,428 10.6 61.0°
Reaches altitude 10° 10:25:28 10° 293° (WNW) 3,760 10.4 61.5°
Maximum altitude 10:35:47 65° 213° (SSW) 2,596 11.0 63.1°
Drops below altitude 10° 10:56:19 10° 134° (SE) 6,893 12.4 66.1°
Sets 11:02:41 0° 131° (SE) 8,242 12.6 66.8°
